Weather in Novopoltavka

Ukraine / Mykolaiv District     47°32′53″N   32°30′03″E
temp.,
°C
wind,
m/s
gust,
m/s
humid.,
%
clouds,
%
prec.,
mm/h
press.,
hPa
HPBL,
m
27 february, sat
sat2723:00+5wnw469742 0.0 1020246
02:00+5wnw359771 0.0 1019224
05:00+5wnw3598100 0.0 1017252
08:00+5wnw3593100 0.0 1017236
11:00+5nnw6109297 0.6 1018471
14:00+6nnw798198 0.9 1018740
17:00+5nw5878100 0.0 1018802
20:00+4nw5984100 0.1 1019499
28 february, sun
sun2823:00+3nw5895100 0.1 1020576
02:00+2nw5992100 0.1 1021604
05:00+2nnw5889100 0.1 1021597
08:00+2nnw5995100 0.1 1022592
11:00+4nnw687691 0.1 1022898
14:00+4nnw687192 0.3 1023936
17:00+3nw686999 0.1 1023963
20:00+1nw4881100 0.1 1024419
1 march, mon
mon123:000nw248999 0.0 1024125
02:00−1wnw239291 0.0 102455
05:00−1nnw33925 0.0 102587
08:00+1n238422 0.0 1026213
11:00+4n456530 0.0 1027969
14:00+4n446366 0.0 1027981
17:00+3n3674100 0.1 1028482
20:00+1nnw3488100 0.1 103083
2 march, tue
tue223:00+1nnw359495 0.0 1030312
02:00−1wnw359461 0.0 1031122
05:00+1wnw378744 0.0 1029430
08:00+1w578772 0.0 1029334
11:00+5wsw7107899 0.0 1027536
14:00+8w81268100 0.0 1024929
17:00+7nw6127277 0.0 1023814
20:00+4nw4108549 0.0 1024278
3 march, wed
wed323:00+3nw36890 0.0 1025115
02:00+2wnw46910 0.0 1025145
05:00+1nw489423 0.0 1025186
08:00+2nnw598711 0.0 1026297
11:00+7nnw68570 0.0 1027971
14:00+8nnw57480 0.0 10261258
17:00+7nw36600 0.0 1026301
20:00+4nw34750 0.0 102765